Year,Month,Day,Hour,Minute,Value (Times are PST for temperature in C)
2018,07,22,00,00,15.20
2018,07,22,00,01,15.20
2018,07,22,00,02,15.20
2018,07,22,00,03,15.10
2018,07,22,00,04,15.10
2018,07,22,00,05,15.10
2018,07,22,00,06,15.10
2018,07,22,00,07,15.00
2018,07,22,00,08,15.00
2018,07,22,00,09,15.00
2018,07,22,00,10,15.00
2018,07,22,00,11,15.00
2018,07,22,00,12,15.00
2018,07,22,00,13,15.00
2018,07,22,00,14,15.00
2018,07,22,00,15,15.00
2018,07,22,00,16,15.00
2018,07,22,00,17,15.00
2018,07,22,00,18,14.90
2018,07,22,00,19,14.90
2018,07,22,00,20,14.90
2018,07,22,00,21,14.90
2018,07,22,00,22,14.90
2018,07,22,00,23,14.80
2018,07,22,00,24,14.80
2018,07,22,00,25,14.80
2018,07,22,00,26,14.80
2018,07,22,00,27,14.80
2018,07,22,00,28,14.80
2018,07,22,00,29,14.70
2018,07,22,00,30,14.70
2018,07,22,00,31,14.70
2018,07,22,00,32,14.70
2018,07,22,00,33,14.70
2018,07,22,00,34,14.70
2018,07,22,00,35,14.70
2018,07,22,00,36,14.70
2018,07,22,00,37,14.70
2018,07,22,00,38,14.70
2018,07,22,00,39,14.70
2018,07,22,00,40,14.70
2018,07,22,00,41,14.70
2018,07,22,00,42,14.70
2018,07,22,00,43,14.70
2018,07,22,00,44,14.70
2018,07,22,00,45,14.60
2018,07,22,00,46,14.60
2018,07,22,00,47,14.60
2018,07,22,00,48,14.60
2018,07,22,00,49,14.60
2018,07,22,00,50,14.60
2018,07,22,00,51,14.60
2018,07,22,00,52,14.60
2018,07,22,00,53,14.50
2018,07,22,00,54,14.50
2018,07,22,00,55,14.50
2018,07,22,00,56,14.40
2018,07,22,00,57,14.40
2018,07,22,00,58,14.40
2018,07,22,00,59,14.40
2018,07,22,01,00,14.30
2018,07,22,01,01,14.30
2018,07,22,01,02,14.30
2018,07,22,01,03,14.30
2018,07,22,01,04,14.30
2018,07,22,01,05,14.30
2018,07,22,01,06,14.30
2018,07,22,01,07,14.30
2018,07,22,01,08,14.20
2018,07,22,01,09,14.20
2018,07,22,01,10,14.20
2018,07,22,01,11,14.20
2018,07,22,01,12,14.20
2018,07,22,01,13,14.20
2018,07,22,01,14,14.20
2018,07,22,01,15,14.10
2018,07,22,01,16,14.10
2018,07,22,01,17,14.10
2018,07,22,01,18,14.10
2018,07,22,01,19,14.10
2018,07,22,01,20,14.10
2018,07,22,01,21,14.00
2018,07,22,01,22,14.00
2018,07,22,01,23,14.00
2018,07,22,01,24,14.00
2018,07,22,01,25,14.00
2018,07,22,01,26,13.90
2018,07,22,01,27,13.90
2018,07,22,01,28,13.90
2018,07,22,01,29,13.90
2018,07,22,01,30,13.90
2018,07,22,01,31,13.80
2018,07,22,01,32,13.80
2018,07,22,01,33,13.80
2018,07,22,01,34,13.80
2018,07,22,01,35,13.80
2018,07,22,01,36,13.80
2018,07,22,01,37,13.80
2018,07,22,01,38,13.80
2018,07,22,01,39,13.80
2018,07,22,01,40,13.80
2018,07,22,01,41,13.80
2018,07,22,01,42,13.80
2018,07,22,01,43,13.80
2018,07,22,01,44,13.80
2018,07,22,01,45,13.80
2018,07,22,01,46,13.80
2018,07,22,01,47,13.80
2018,07,22,01,48,13.80
2018,07,22,01,49,13.80
2018,07,22,01,50,13.80
2018,07,22,01,51,13.80
2018,07,22,01,52,13.80
2018,07,22,01,53,13.80
2018,07,22,01,54,13.80
2018,07,22,01,55,13.80
2018,07,22,01,56,13.80
2018,07,22,01,57,13.80
2018,07,22,01,58,13.70
2018,07,22,01,59,13.70
2018,07,22,02,00,13.70
2018,07,22,02,01,13.70
2018,07,22,02,02,13.70
2018,07,22,02,03,13.70
2018,07,22,02,04,13.70
2018,07,22,02,05,13.70
2018,07,22,02,06,13.60
2018,07,22,02,07,13.60
2018,07,22,02,08,13.60
2018,07,22,02,09,13.60
2018,07,22,02,10,13.60
2018,07,22,02,11,13.60
2018,07,22,02,12,13.50
2018,07,22,02,13,13.50
2018,07,22,02,14,13.50
2018,07,22,02,15,13.50
2018,07,22,02,16,13.40
2018,07,22,02,17,13.40
2018,07,22,02,18,13.40
2018,07,22,02,19,13.40
2018,07,22,02,20,13.40
2018,07,22,02,21,13.40
2018,07,22,02,22,13.40
2018,07,22,02,23,13.30
2018,07,22,02,24,13.30
2018,07,22,02,25,13.30
2018,07,22,02,26,13.30
2018,07,22,02,27,13.30
2018,07,22,02,28,13.30
2018,07,22,02,29,13.30
2018,07,22,02,30,13.30
2018,07,22,02,31,13.30
2018,07,22,02,32,13.20
2018,07,22,02,33,13.20
2018,07,22,02,34,13.20
2018,07,22,02,35,13.20
2018,07,22,02,36,13.20
2018,07,22,02,37,13.20
2018,07,22,02,38,13.20
2018,07,22,02,39,13.20
2018,07,22,02,40,13.20
2018,07,22,02,41,13.20
2018,07,22,02,42,13.10
2018,07,22,02,43,13.10
2018,07,22,02,44,13.10
2018,07,22,02,45,13.10
2018,07,22,02,46,13.10
2018,07,22,02,47,13.10
2018,07,22,02,48,13.00
2018,07,22,02,49,13.00
2018,07,22,02,50,13.00
2018,07,22,02,51,13.00
2018,07,22,02,52,13.00
2018,07,22,02,53,13.00
2018,07,22,02,54,13.00
2018,07,22,02,55,12.90
2018,07,22,02,56,12.90
2018,07,22,02,57,12.90
2018,07,22,02,58,12.90
2018,07,22,02,59,12.90
2018,07,22,03,00,12.90
2018,07,22,03,01,12.90
2018,07,22,03,02,12.90
2018,07,22,03,03,12.90
2018,07,22,03,04,12.90
2018,07,22,03,05,12.90
2018,07,22,03,06,12.90
2018,07,22,03,07,12.90
2018,07,22,03,08,12.90
2018,07,22,03,09,12.90
2018,07,22,03,10,12.90
2018,07,22,03,11,12.90
2018,07,22,03,12,12.90
2018,07,22,03,13,12.90
2018,07,22,03,14,12.90
2018,07,22,03,15,12.90
2018,07,22,03,16,12.90
2018,07,22,03,17,12.90
2018,07,22,03,18,12.90
2018,07,22,03,19,12.90
2018,07,22,03,20,12.90
2018,07,22,03,21,12.90
2018,07,22,03,22,12.80
2018,07,22,03,23,12.80
2018,07,22,03,24,12.80
2018,07,22,03,25,12.80
2018,07,22,03,26,12.80
2018,07,22,03,27,12.80
2018,07,22,03,28,12.80
2018,07,22,03,29,12.80
2018,07,22,03,30,12.80
2018,07,22,03,31,12.80
2018,07,22,03,32,12.80
2018,07,22,03,33,12.80
2018,07,22,03,34,12.80
2018,07,22,03,35,12.70
2018,07,22,03,36,12.80
2018,07,22,03,37,12.80
2018,07,22,03,38,12.80
2018,07,22,03,39,12.80
2018,07,22,03,40,12.70
2018,07,22,03,41,12.70
2018,07,22,03,42,12.70
2018,07,22,03,43,12.70
2018,07,22,03,44,12.70
2018,07,22,03,45,12.70
2018,07,22,03,46,12.70
2018,07,22,03,47,12.70
2018,07,22,03,48,12.70
2018,07,22,03,49,12.70
2018,07,22,03,50,12.70
2018,07,22,03,51,12.70
2018,07,22,03,52,12.70
2018,07,22,03,53,12.70
2018,07,22,03,54,12.70
2018,07,22,03,55,12.70
2018,07,22,03,56,12.70
2018,07,22,03,57,12.70
2018,07,22,03,58,12.70
2018,07,22,03,59,12.70
2018,07,22,04,00,12.70
2018,07,22,04,01,12.70
2018,07,22,04,02,12.70
2018,07,22,04,03,12.70
2018,07,22,04,04,12.70
2018,07,22,04,05,12.70
2018,07,22,04,06,12.70
2018,07,22,04,07,12.70
2018,07,22,04,08,12.70
2018,07,22,04,09,12.70
2018,07,22,04,10,12.70
2018,07,22,04,11,12.70
2018,07,22,04,12,12.70
2018,07,22,04,13,12.70
2018,07,22,04,14,12.70
2018,07,22,04,15,12.70
2018,07,22,04,16,12.70
2018,07,22,04,17,12.70
2018,07,22,04,18,12.80
2018,07,22,04,19,12.80
2018,07,22,04,20,12.80
2018,07,22,04,21,12.80
2018,07,22,04,22,12.90
2018,07,22,04,23,12.90
2018,07,22,04,24,12.90
2018,07,22,04,25,12.90
2018,07,22,04,26,12.90
2018,07,22,04,27,12.90
2018,07,22,04,28,12.90
2018,07,22,04,29,12.90
2018,07,22,04,30,12.90
2018,07,22,04,31,12.90
2018,07,22,04,32,12.90
2018,07,22,04,33,12.80
2018,07,22,04,34,12.80
2018,07,22,04,35,12.80
2018,07,22,04,36,12.80
2018,07,22,04,37,12.80
2018,07,22,04,38,12.80
2018,07,22,04,39,12.80
2018,07,22,04,40,12.80
2018,07,22,04,41,12.80
2018,07,22,04,42,12.80
2018,07,22,04,43,12.80
2018,07,22,04,44,12.80
2018,07,22,04,45,12.80
2018,07,22,04,46,12.80
2018,07,22,04,47,12.80
2018,07,22,04,48,12.80
2018,07,22,04,49,12.80
2018,07,22,04,50,12.80
2018,07,22,04,51,12.80
2018,07,22,04,52,12.80
2018,07,22,04,53,12.80
2018,07,22,04,54,12.80
2018,07,22,04,55,12.80
2018,07,22,04,56,12.80
2018,07,22,04,57,12.80
2018,07,22,04,58,12.80
2018,07,22,04,59,12.90
2018,07,22,05,00,12.80
2018,07,22,05,01,12.80
2018,07,22,05,02,12.80
2018,07,22,05,03,12.80
2018,07,22,05,04,12.90
2018,07,22,05,05,12.90
2018,07,22,05,06,12.90
2018,07,22,05,07,12.90
2018,07,22,05,08,12.90
2018,07,22,05,09,12.80
2018,07,22,05,10,12.80
2018,07,22,05,11,12.80
2018,07,22,05,12,12.80
2018,07,22,05,13,12.80
2018,07,22,05,14,12.80
2018,07,22,05,15,12.80
2018,07,22,05,16,12.80
2018,07,22,05,17,12.70
2018,07,22,05,18,12.70
2018,07,22,05,19,12.70
2018,07,22,05,20,12.70
2018,07,22,05,21,12.70
2018,07,22,05,22,12.70
2018,07,22,05,23,12.70
2018,07,22,05,24,12.60
2018,07,22,05,25,12.60
2018,07,22,05,26,12.60
2018,07,22,05,27,12.60
2018,07,22,05,28,12.60
2018,07,22,05,29,12.50
2018,07,22,05,30,12.50
2018,07,22,05,31,12.50
2018,07,22,05,32,12.50
2018,07,22,05,33,12.50
2018,07,22,05,34,12.40
2018,07,22,05,35,12.40
2018,07,22,05,36,12.40
2018,07,22,05,37,12.40
2018,07,22,05,38,12.40
2018,07,22,05,39,12.40
2018,07,22,05,40,12.40
2018,07,22,05,41,12.40
2018,07,22,05,42,12.40
2018,07,22,05,43,12.40
2018,07,22,05,44,12.40
2018,07,22,05,45,12.40
2018,07,22,05,46,12.30
2018,07,22,05,47,12.30
2018,07,22,05,48,12.30
2018,07,22,05,49,12.30
2018,07,22,05,50,12.30
2018,07,22,05,51,12.30
2018,07,22,05,52,12.30
2018,07,22,05,53,12.30
2018,07,22,05,54,12.30
2018,07,22,05,55,12.30
2018,07,22,05,56,12.30
2018,07,22,05,57,12.30
2018,07,22,05,58,12.30
2018,07,22,05,59,12.30
2018,07,22,06,00,12.30
2018,07,22,06,01,12.20
2018,07,22,06,02,12.20
2018,07,22,06,03,12.20
2018,07,22,06,04,12.20
2018,07,22,06,05,12.20
2018,07,22,06,06,12.20
2018,07,22,06,07,12.20
2018,07,22,06,08,12.20
2018,07,22,06,09,12.20
2018,07,22,06,10,12.20
2018,07,22,06,11,12.20
2018,07,22,06,12,12.20
2018,07,22,06,13,12.20
2018,07,22,06,14,12.20
2018,07,22,06,15,12.20
2018,07,22,06,16,12.20
2018,07,22,06,17,12.20
2018,07,22,06,18,12.20
2018,07,22,06,19,12.20
2018,07,22,06,20,12.20
2018,07,22,06,21,12.30
2018,07,22,06,22,12.30
2018,07,22,06,23,12.30
2018,07,22,06,24,12.30
2018,07,22,06,25,12.30
2018,07,22,06,26,12.30
2018,07,22,06,27,12.30
2018,07,22,06,28,12.30
2018,07,22,06,29,12.30
2018,07,22,06,30,12.30
2018,07,22,06,31,12.30
2018,07,22,06,32,12.30
2018,07,22,06,33,12.30
2018,07,22,06,34,12.30
2018,07,22,06,35,12.30
2018,07,22,06,36,12.40
2018,07,22,06,37,12.30
2018,07,22,06,38,12.40
2018,07,22,06,39,12.40
2018,07,22,06,40,12.40
2018,07,22,06,41,12.40
2018,07,22,06,42,12.40
2018,07,22,06,43,12.40
2018,07,22,06,44,12.40
2018,07,22,06,45,12.40
2018,07,22,06,46,12.40
2018,07,22,06,47,12.40
2018,07,22,06,48,12.40
2018,07,22,06,49,12.50
2018,07,22,06,50,12.60
2018,07,22,06,51,12.60
2018,07,22,06,52,12.70
2018,07,22,06,53,12.80
2018,07,22,06,54,12.90
2018,07,22,06,55,12.90
2018,07,22,06,56,13.00
2018,07,22,06,57,13.10
2018,07,22,06,58,13.20
2018,07,22,06,59,13.20
2018,07,22,07,00,13.30
2018,07,22,07,01,13.30
2018,07,22,07,02,13.40
2018,07,22,07,03,13.50
2018,07,22,07,04,13.60
2018,07,22,07,05,13.70
2018,07,22,07,06,13.80
2018,07,22,07,07,13.80
2018,07,22,07,08,13.90
2018,07,22,07,09,14.00
2018,07,22,07,10,14.20
2018,07,22,07,11,14.30
2018,07,22,07,12,14.40
2018,07,22,07,13,14.60
2018,07,22,07,14,14.70
2018,07,22,07,15,14.80
2018,07,22,07,16,14.90
2018,07,22,07,17,15.00
2018,07,22,07,18,15.10
2018,07,22,07,19,15.20
2018,07,22,07,20,15.20
2018,07,22,07,21,15.30
2018,07,22,07,22,15.40
2018,07,22,07,23,15.60
2018,07,22,07,24,15.70
2018,07,22,07,25,15.80
2018,07,22,07,26,15.90
2018,07,22,07,27,16.00
2018,07,22,07,28,16.10
2018,07,22,07,29,16.10
2018,07,22,07,30,16.20
2018,07,22,07,31,16.30
2018,07,22,07,32,16.40
2018,07,22,07,33,16.50
2018,07,22,07,34,16.70
2018,07,22,07,35,16.70
2018,07,22,07,36,16.90
2018,07,22,07,37,17.00
2018,07,22,07,38,17.10
2018,07,22,07,39,17.20
2018,07,22,07,40,17.20
2018,07,22,07,41,17.30
2018,07,22,07,42,17.30
2018,07,22,07,43,17.30
2018,07,22,07,44,17.40
2018,07,22,07,45,17.40
2018,07,22,07,46,17.50
2018,07,22,07,47,17.60
2018,07,22,07,48,17.70
2018,07,22,07,49,17.80
2018,07,22,07,50,18.00
2018,07,22,07,51,18.10
2018,07,22,07,52,18.20
2018,07,22,07,53,18.30
2018,07,22,07,54,18.40
2018,07,22,07,55,18.60
2018,07,22,07,56,18.70
2018,07,22,07,57,18.80
2018,07,22,07,58,18.80
2018,07,22,07,59,18.90
2018,07,22,08,00,19.00
2018,07,22,08,01,19.10
2018,07,22,08,02,19.20
2018,07,22,08,03,19.20
2018,07,22,08,04,19.30
2018,07,22,08,05,19.40
2018,07,22,08,06,19.40
2018,07,22,08,07,19.50
2018,07,22,08,08,19.60
2018,07,22,08,09,19.70
2018,07,22,08,10,19.70
2018,07,22,08,11,19.80
2018,07,22,08,12,19.80
2018,07,22,08,13,19.80
2018,07,22,08,14,19.90
2018,07,22,08,15,19.90
2018,07,22,08,16,20.00
2018,07,22,08,17,20.00
2018,07,22,08,18,20.10
2018,07,22,08,19,20.20
2018,07,22,08,20,20.20
2018,07,22,08,21,20.20
2018,07,22,08,22,20.20
2018,07,22,08,23,20.30
2018,07,22,08,24,20.30
2018,07,22,08,25,20.40
2018,07,22,08,26,20.40
2018,07,22,08,27,20.50
2018,07,22,08,28,20.40
2018,07,22,08,29,20.40
2018,07,22,08,30,20.40
2018,07,22,08,31,20.50
2018,07,22,08,32,20.50
2018,07,22,08,33,20.60
2018,07,22,08,34,20.70
2018,07,22,08,35,20.80
2018,07,22,08,36,20.90
2018,07,22,08,37,21.00
2018,07,22,08,38,21.10
2018,07,22,08,39,21.20
2018,07,22,08,40,21.20
2018,07,22,08,41,21.20
2018,07,22,08,42,21.30
2018,07,22,08,43,21.30
2018,07,22,08,44,21.40
2018,07,22,08,45,21.50
2018,07,22,08,46,21.50
2018,07,22,08,47,21.60
2018,07,22,08,48,21.60
2018,07,22,08,49,21.60
2018,07,22,08,50,21.70
2018,07,22,08,51,21.70
2018,07,22,08,52,21.80
2018,07,22,08,53,21.90
2018,07,22,08,54,22.00
2018,07,22,08,55,22.10
2018,07,22,08,56,22.10
2018,07,22,08,57,22.10
2018,07,22,08,58,22.10
2018,07,22,08,59,22.20
2018,07,22,09,00,22.10
2018,07,22,09,01,22.10
2018,07,22,09,02,22.00
2018,07,22,09,03,21.90
2018,07,22,09,04,21.80
2018,07,22,09,05,21.70
2018,07,22,09,06,21.60
2018,07,22,09,07,21.40
2018,07,22,09,08,21.30
2018,07,22,09,09,21.20
2018,07,22,09,10,21.20
2018,07,22,09,11,21.20
2018,07,22,09,12,21.10
2018,07,22,09,13,21.00
2018,07,22,09,14,21.00
2018,07,22,09,15,20.90
2018,07,22,09,16,21.00
2018,07,22,09,17,21.00
2018,07,22,09,18,21.00
2018,07,22,09,19,21.00
2018,07,22,09,20,21.00
2018,07,22,09,21,21.00
2018,07,22,09,22,21.10
2018,07,22,09,23,21.10
2018,07,22,09,24,21.20
2018,07,22,09,25,21.20
2018,07,22,09,26,21.20
2018,07,22,09,27,21.20
2018,07,22,09,28,21.30
2018,07,22,09,29,21.30
2018,07,22,09,30,21.30
2018,07,22,09,31,21.30
2018,07,22,09,32,21.30
2018,07,22,09,33,21.40
2018,07,22,09,34,21.40
2018,07,22,09,35,21.50
2018,07,22,09,36,21.50
2018,07,22,09,37,21.50
2018,07,22,09,38,21.60
2018,07,22,09,39,21.60
2018,07,22,09,40,21.60
2018,07,22,09,41,21.60
2018,07,22,09,42,21.60
2018,07,22,09,43,21.60
2018,07,22,09,44,21.50
2018,07,22,09,45,21.50
2018,07,22,09,46,21.50
2018,07,22,09,47,21.50
2018,07,22,09,48,21.50
2018,07,22,09,49,21.60
2018,07,22,09,50,21.60
2018,07,22,09,51,21.60
2018,07,22,09,52,21.60
2018,07,22,09,53,21.60
2018,07,22,09,54,21.70
2018,07,22,09,55,21.70
2018,07,22,09,56,21.80
2018,07,22,09,57,21.80
2018,07,22,09,58,21.70
2018,07,22,09,59,21.80
2018,07,22,10,00,21.80
2018,07,22,10,01,21.80
2018,07,22,10,02,21.80
2018,07,22,10,03,21.90
2018,07,22,10,04,21.90
2018,07,22,10,05,21.90
2018,07,22,10,06,22.00
2018,07,22,10,07,22.00
2018,07,22,10,08,22.00
2018,07,22,10,09,22.00
2018,07,22,10,10,22.10
2018,07,22,10,11,22.20
2018,07,22,10,12,22.20
2018,07,22,10,13,22.30
2018,07,22,10,14,22.40
2018,07,22,10,15,22.50
2018,07,22,10,16,22.60
2018,07,22,10,17,22.60
2018,07,22,10,18,22.50
2018,07,22,10,19,22.50
2018,07,22,10,20,22.40
2018,07,22,10,21,22.40
2018,07,22,10,22,22.40
2018,07,22,10,23,22.30
2018,07,22,10,24,22.40
2018,07,22,10,25,22.50
2018,07,22,10,26,22.60
2018,07,22,10,27,22.70
2018,07,22,10,28,22.80
2018,07,22,10,29,22.90
2018,07,22,10,30,22.90
2018,07,22,10,31,22.90
2018,07,22,10,32,22.90
2018,07,22,10,33,22.90
2018,07,22,10,34,22.90
2018,07,22,10,35,22.90
2018,07,22,10,36,23.00
2018,07,22,10,37,23.10
2018,07,22,10,38,23.10
2018,07,22,10,39,23.20
2018,07,22,10,40,23.30
2018,07,22,10,41,23.40
2018,07,22,10,42,23.50
2018,07,22,10,43,23.60
2018,07,22,10,44,23.70
2018,07,22,10,45,23.70
2018,07,22,10,46,23.70
2018,07,22,10,47,23.70
2018,07,22,10,48,23.90
2018,07,22,10,49,24.00
2018,07,22,10,50,24.10
2018,07,22,10,51,24.20
2018,07,22,10,52,24.30
2018,07,22,10,53,24.40
2018,07,22,10,54,24.50
2018,07,22,10,55,24.60
2018,07,22,10,56,24.60
2018,07,22,10,57,24.50
2018,07,22,10,58,24.40
2018,07,22,10,59,24.30
2018,07,22,11,00,24.20
2018,07,22,11,01,24.00
2018,07,22,11,02,23.90
2018,07,22,11,03,23.80
2018,07,22,11,04,23.80
2018,07,22,11,05,23.80
2018,07,22,11,06,23.80
2018,07,22,11,07,23.80
2018,07,22,11,08,23.70
2018,07,22,11,09,23.70
2018,07,22,11,10,23.70
2018,07,22,11,11,23.70
2018,07,22,11,12,23.60
2018,07,22,11,13,23.60
2018,07,22,11,14,23.60
2018,07,22,11,15,23.60
2018,07,22,11,16,23.70
2018,07,22,11,17,23.80
2018,07,22,11,18,23.90
2018,07,22,11,19,24.00
2018,07,22,11,20,24.10
2018,07,22,11,21,24.10
2018,07,22,11,22,24.00
2018,07,22,11,23,23.90
2018,07,22,11,24,23.80
2018,07,22,11,25,23.80
2018,07,22,11,26,23.90
2018,07,22,11,27,23.90
2018,07,22,11,28,24.00
2018,07,22,11,29,24.10
2018,07,22,11,30,24.20
2018,07,22,11,31,24.10
2018,07,22,11,32,24.10
2018,07,22,11,33,24.10
2018,07,22,11,34,24.20
2018,07,22,11,35,24.30
2018,07,22,11,36,24.50
2018,07,22,11,37,24.60
2018,07,22,11,38,24.70
2018,07,22,11,39,24.80
2018,07,22,11,40,24.80
2018,07,22,11,41,24.90
2018,07,22,11,42,24.90
2018,07,22,11,43,24.90
2018,07,22,11,44,24.90
2018,07,22,11,45,24.90
2018,07,22,11,46,24.90
2018,07,22,11,47,24.90
2018,07,22,11,48,24.80
2018,07,22,11,49,24.80
2018,07,22,11,50,24.80
2018,07,22,11,51,24.90
2018,07,22,11,52,25.00
2018,07,22,11,53,25.10
2018,07,22,11,54,25.20
2018,07,22,11,55,25.20
2018,07,22,11,56,25.20
2018,07,22,11,57,25.20
2018,07,22,11,58,25.20
2018,07,22,11,59,25.20
2018,07,22,12,00,25.10
2018,07,22,12,01,25.10
2018,07,22,12,02,25.00
2018,07,22,12,03,25.00
2018,07,22,12,04,25.00
2018,07,22,12,05,25.10
2018,07,22,12,06,25.20
2018,07,22,12,07,25.10
2018,07,22,12,08,25.10
2018,07,22,12,09,25.10
2018,07,22,12,10,25.20
2018,07,22,12,11,25.30
2018,07,22,12,12,25.40
2018,07,22,12,13,25.40
2018,07,22,12,14,25.40
2018,07,22,12,15,25.30
2018,07,22,12,16,25.10
2018,07,22,12,17,24.90
2018,07,22,12,18,24.80
2018,07,22,12,19,24.70
2018,07,22,12,20,24.70
2018,07,22,12,21,24.80
2018,07,22,12,22,24.90
2018,07,22,12,23,24.90
2018,07,22,12,24,24.90
2018,07,22,12,25,24.90
2018,07,22,12,26,24.90
2018,07,22,12,27,24.90
2018,07,22,12,28,24.90
2018,07,22,12,29,24.90
2018,07,22,12,30,24.90
2018,07,22,12,31,24.90
2018,07,22,12,32,24.90
2018,07,22,12,33,24.90
2018,07,22,12,34,24.90
2018,07,22,12,35,24.90
2018,07,22,12,36,24.90
2018,07,22,12,37,24.90
2018,07,22,12,38,24.90
2018,07,22,12,39,24.90
2018,07,22,12,40,25.00
2018,07,22,12,41,25.00
2018,07,22,12,42,25.10
2018,07,22,12,43,25.10
2018,07,22,12,44,25.10
2018,07,22,12,45,25.20
2018,07,22,12,46,25.20
2018,07,22,12,47,25.20
2018,07,22,12,48,25.20
2018,07,22,12,49,25.20
2018,07,22,12,50,25.20
2018,07,22,12,51,25.20
2018,07,22,12,52,25.20
2018,07,22,12,53,25.20
2018,07,22,12,54,25.30
2018,07,22,12,55,25.40
2018,07,22,12,56,25.50
2018,07,22,12,57,25.60
2018,07,22,12,58,25.70
2018,07,22,12,59,25.80
2018,07,22,13,00,25.80
2018,07,22,13,01,25.70
2018,07,22,13,02,25.70
2018,07,22,13,03,25.80
2018,07,22,13,04,25.90
2018,07,22,13,05,25.90
2018,07,22,13,06,26.00
2018,07,22,13,07,26.10
2018,07,22,13,08,26.20
2018,07,22,13,09,26.20
2018,07,22,13,10,26.20
2018,07,22,13,11,26.20
2018,07,22,13,12,26.20
2018,07,22,13,13,26.30
2018,07,22,13,14,26.30
2018,07,22,13,15,26.30
2018,07,22,13,16,26.20
2018,07,22,13,17,26.30
2018,07,22,13,18,26.50
2018,07,22,13,19,26.50
2018,07,22,13,20,26.70
2018,07,22,13,21,26.70
2018,07,22,13,22,26.70
2018,07,22,13,23,26.70
2018,07,22,13,24,26.70
2018,07,22,13,25,26.70
2018,07,22,13,26,26.70
2018,07,22,13,27,26.70
2018,07,22,13,28,26.70
2018,07,22,13,29,26.80
2018,07,22,13,30,26.90
2018,07,22,13,31,27.10
2018,07,22,13,32,27.10
2018,07,22,13,33,27.20
2018,07,22,13,34,27.20
2018,07,22,13,35,27.20
2018,07,22,13,36,27.30
2018,07,22,13,37,27.30
2018,07,22,13,38,27.30
2018,07,22,13,39,27.30
2018,07,22,13,40,27.20
2018,07,22,13,41,27.20
2018,07,22,13,42,27.10
2018,07,22,13,43,27.10
2018,07,22,13,44,27.10
2018,07,22,13,45,27.20
2018,07,22,13,46,27.20
2018,07,22,13,47,27.30
2018,07,22,13,48,27.20
2018,07,22,13,49,27.10
2018,07,22,13,50,27.10
2018,07,22,13,51,27.10
2018,07,22,13,52,27.00
2018,07,22,13,53,26.90
2018,07,22,13,54,26.90
2018,07,22,13,55,27.00
2018,07,22,13,56,27.00
2018,07,22,13,57,27.00
2018,07,22,13,58,27.00
2018,07,22,13,59,27.00
2018,07,22,14,00,27.10
2018,07,22,14,01,27.10
2018,07,22,14,02,27.00
2018,07,22,14,03,27.00
2018,07,22,14,04,27.10
2018,07,22,14,05,27.20
2018,07,22,14,06,27.30
2018,07,22,14,07,27.30
2018,07,22,14,08,27.40
2018,07,22,14,09,27.50
2018,07,22,14,10,27.50
2018,07,22,14,11,27.50
2018,07,22,14,12,27.40
2018,07,22,14,13,27.40
2018,07,22,14,14,27.30
2018,07,22,14,15,27.30
2018,07,22,14,16,27.40
2018,07,22,14,17,27.40
2018,07,22,14,18,27.50
2018,07,22,14,19,27.60
2018,07,22,14,20,27.70
2018,07,22,14,21,27.80
2018,07,22,14,22,27.90
2018,07,22,14,23,28.00
2018,07,22,14,24,28.00
2018,07,22,14,25,28.00
2018,07,22,14,26,28.00
2018,07,22,14,27,28.00
2018,07,22,14,28,27.80
2018,07,22,14,29,27.80
2018,07,22,14,30,27.80
2018,07,22,14,31,27.80
2018,07,22,14,32,27.80
2018,07,22,14,33,27.80
2018,07,22,14,34,27.70
2018,07,22,14,35,27.50
2018,07,22,14,36,27.40
2018,07,22,14,37,27.40
2018,07,22,14,38,27.50
2018,07,22,14,39,27.50
2018,07,22,14,40,27.40
2018,07,22,14,41,27.40
2018,07,22,14,42,27.40
2018,07,22,14,43,27.40
2018,07,22,14,44,27.20
2018,07,22,14,45,27.10
2018,07,22,14,46,27.00
2018,07,22,14,47,27.00
2018,07,22,14,48,27.00
2018,07,22,14,49,27.10
2018,07,22,14,50,27.20
2018,07,22,14,51,27.40
2018,07,22,14,52,27.40
2018,07,22,14,53,27.50
2018,07,22,14,54,27.50
2018,07,22,14,55,27.50
2018,07,22,14,56,27.40
2018,07,22,14,57,27.40
2018,07,22,14,58,27.40
2018,07,22,14,59,27.30
2018,07,22,15,00,27.20
2018,07,22,15,01,27.10
2018,07,22,15,02,27.10
2018,07,22,15,03,27.20
2018,07,22,15,04,27.20
2018,07,22,15,05,27.30
2018,07,22,15,06,27.30
2018,07,22,15,07,27.30
2018,07,22,15,08,27.40
2018,07,22,15,09,27.50
2018,07,22,15,10,27.60
2018,07,22,15,11,27.60
2018,07,22,15,12,27.60
2018,07,22,15,13,27.60
2018,07,22,15,14,27.60
2018,07,22,15,15,27.60
2018,07,22,15,16,27.60
2018,07,22,15,17,27.60
2018,07,22,15,18,27.60
2018,07,22,15,19,27.60
2018,07,22,15,20,27.60
2018,07,22,15,21,27.50
2018,07,22,15,22,27.40
2018,07,22,15,23,27.30
2018,07,22,15,24,27.20
2018,07,22,15,25,27.20
2018,07,22,15,26,27.20
2018,07,22,15,27,27.20
2018,07,22,15,28,27.30
2018,07,22,15,29,27.40
2018,07,22,15,30,27.50
2018,07,22,15,31,27.50
2018,07,22,15,32,27.40
2018,07,22,15,33,27.30
2018,07,22,15,34,27.30
2018,07,22,15,35,27.20
2018,07,22,15,36,27.20
2018,07,22,15,37,27.20
2018,07,22,15,38,27.20
2018,07,22,15,39,27.20
2018,07,22,15,40,27.20
2018,07,22,15,41,27.20
2018,07,22,15,42,27.30
2018,07,22,15,43,27.30
2018,07,22,15,44,27.30
2018,07,22,15,45,27.30
2018,07,22,15,46,27.40
2018,07,22,15,47,27.40
2018,07,22,15,48,27.50
2018,07,22,15,49,27.50
2018,07,22,15,50,27.50
2018,07,22,15,51,27.60
2018,07,22,15,52,27.60
2018,07,22,15,53,27.70
2018,07,22,15,54,27.60
2018,07,22,15,55,27.50
2018,07,22,15,56,27.50
2018,07,22,15,57,27.60
2018,07,22,15,58,27.60
2018,07,22,15,59,27.60
2018,07,22,16,00,27.60
2018,07,22,16,01,27.60
2018,07,22,16,02,27.60
2018,07,22,16,03,27.50
2018,07,22,16,04,27.50
2018,07,22,16,05,27.60
2018,07,22,16,06,27.60
2018,07,22,16,07,27.50
2018,07,22,16,08,27.50
2018,07,22,16,09,27.40
2018,07,22,16,10,27.40
2018,07,22,16,11,27.50
2018,07,22,16,12,27.60
2018,07,22,16,13,27.60
2018,07,22,16,14,27.60
2018,07,22,16,15,27.70
2018,07,22,16,16,27.80
2018,07,22,16,17,27.70
2018,07,22,16,18,27.70
2018,07,22,16,19,27.70
2018,07,22,16,20,27.70
2018,07,22,16,21,27.70
2018,07,22,16,22,27.80
2018,07,22,16,23,27.90
2018,07,22,16,24,27.90
2018,07,22,16,25,27.80
2018,07,22,16,26,27.80
2018,07,22,16,27,27.90
2018,07,22,16,28,27.90
2018,07,22,16,29,27.90
2018,07,22,16,30,28.00
2018,07,22,16,31,28.10
2018,07,22,16,32,28.10
2018,07,22,16,33,28.00
2018,07,22,16,34,28.00
2018,07,22,16,35,27.90
2018,07,22,16,36,28.00
2018,07,22,16,37,28.00
2018,07,22,16,38,28.10
2018,07,22,16,39,27.90
2018,07,22,16,40,27.90
2018,07,22,16,41,27.90
2018,07,22,16,42,27.90
2018,07,22,16,43,27.90
2018,07,22,16,44,28.00
2018,07,22,16,45,28.10
2018,07,22,16,46,28.20
2018,07,22,16,47,28.20
2018,07,22,16,48,28.10
2018,07,22,16,49,28.10
2018,07,22,16,50,28.10
2018,07,22,16,51,28.20
2018,07,22,16,52,28.20
2018,07,22,16,53,28.30
2018,07,22,16,54,28.40
2018,07,22,16,55,28.40
2018,07,22,16,56,28.40
2018,07,22,16,57,28.40
2018,07,22,16,58,28.40
2018,07,22,16,59,28.40
2018,07,22,17,00,28.40
2018,07,22,17,01,28.40
2018,07,22,17,02,28.40
2018,07,22,17,03,28.40
2018,07,22,17,04,28.40
2018,07,22,17,05,28.40
2018,07,22,17,06,28.40
2018,07,22,17,07,28.40
2018,07,22,17,08,28.50
2018,07,22,17,09,28.40
2018,07,22,17,10,28.30
2018,07,22,17,11,28.30
2018,07,22,17,12,28.20
2018,07,22,17,13,28.20
2018,07,22,17,14,28.20
2018,07,22,17,15,28.30
2018,07,22,17,16,28.30
2018,07,22,17,17,28.30
2018,07,22,17,18,28.30
2018,07,22,17,19,28.40